Flag for Germany Weather past 2 weeks in Dinslaken, North Rhine-Westphalia, Germany

Now
73 °F

Overcast.


Feels Like: 77 °F
Forecast: 51 / 78 °F
Wind: 1 mph from Northwest

Location: Essen

Current Time: Aug 1, 2015 at 4:19:08 PM

Latest Report: Aug 1, 2015 at 3:00 PM


Visibility: 31 mi

Pressure: 29.96 "Hg

Humidity: 39%

Dew point: 46 °F

Location of DinslakenLocation

Historic Weather in Dinslaken — Graph

°F

Dinslaken temperature yesterday

Maximum temperature yesterday: 66 °F (at 5:00 PM)
Minimum temperature yesterday: 47 °F (at 5:00 AM)
Average temperature yesterday: 57 °F

Past Weeks' High & Low Weather Summary

 TemperatureHumidityPressure
High88 °F (Jul 17, 5:00 PM)100% (Jul 19, 8:00 AM)30.16 "Hg (Jul 19, 8:00 AM)
Low47 °F (Jul 31, 5:00 AM)30% (Jul 17, 5:00 PM)29.50 "Hg (Jul 25, 7:00 AM)
Average63 °F72%29.88 "Hg
* Reported Jul 17 3:00 PM — Aug 1 3:00 PM, Dinslaken, Weather by CustomWeather, © 2015

Note: Actual official high and low records may vary slightly from our data, if they occured in-between our weather recording intervals... More about our weather records

Advertising

Dinslaken weather history for previous 24 hours

 ConditionsComfort  
Time TempWeatherWind HumidityBarometerVisibility
3:00 PM
Sat, Aug 1
73 °FOvercast.1 mph39%29.96 "Hg31 mi
2:00 PM72 °FSunny.2 mph38%29.97 "Hg31 mi
1:00 PM71 °FSunny.2 mph38%29.98 "Hg22 mi
12:00 PM69 °FSunny.3 mph47%29.98 "Hg19 mi
11:00 AM66 °FPassing clouds.3 mph51%29.99 "Hg22 mi
10:00 AM64 °FPartly sunny.1 mph57%29.99 "Hg28 mi
9:00 AM60 °FScattered clouds.1 mph65%29.99 "Hg17 mi
8:00 AM56 °FScattered clouds.1 mph69%29.99 "Hg28 mi
7:00 AM52 °FPartly sunny.2 mph78%29.99 "Hg25 mi
6:00 AM52 °FOvercast.2 mph75%29.99 "Hg25 mi
5:00 AM53 °FOvercast.2 mph72%30.00 "Hg28 mi
4:00 AM53 °FOvercast.2 mph72%30.01 "Hg28 mi
3:00 AM55 °FOvercast.3 mph67%30.02 "Hg28 mi
2:00 AM56 °FOvercast.3 mph63%30.03 "Hg25 mi
1:00 AM57 °FOvercast.3 mph62%30.04 "Hg37 mi
12:00 AM58 °FOvercast.3 mph59%30.05 "Hg37 mi
11:00 PM
Fri, Jul 31
58 °FOvercast.3 mph57%30.05 "Hg40 mi
10:00 PM59 °FOvercast.3 mph55%30.04 "Hg43 mi
9:00 PM62 °FPassing clouds.3 mph50%30.04 "Hg40 mi
8:00 PM64 °FScattered clouds.3 mph47%30.05 "Hg43 mi
7:00 PM65 °FScattered clouds.3 mph42%30.06 "Hg34 mi
6:00 PM65 °FOvercast.3 mph41%30.07 "Hg34 mi
5:00 PM66 °FPartly sunny.1 mph38%30.08 "Hg28 mi
4:00 PM65 °FOvercast.3 mph43%30.09 "Hg28 mi
Weather by CustomWeather, © 2015

See weather overviewHow to use our weather pages